Location: Saalfelden+am+Steinernen+Meer
(47.4274°N, 12.8411°E)
Time: 20:09:06
(UTC+01:00)

Amateur Radio Satellites - All Passes

Search period start: 18 November 2017 19:39
Search period end: 19 November 2017 19:39
Location: Saalfelden+am+Steinernen+Meer, 47.4274°N, 12.8411°E

Satellite Date Start Highest point End Downlink Frequencies (MHz)
Time Altitude Azimuth
UWE-3 18 Nov 19:40:49 19:45:00 38° 263° (W) 19:49:07 435.000/436.395/437.385
CUTE 1.7 + AOD 2 18 Nov 19:54:33 19:55:25 11° 273° (W) 19:56:16 437.475
HO-68 18 Nov 19:55:25 20:00:46 22° 270° (W) 20:06:09 435.675
NO-84 18 Nov 20:01:49 20:05:28 28° 3° (N) 20:09:12 435.350 FM
XW-2A 18 Nov 20:08:44 20:10:33 14° 269° (W) 20:12:22 145.665 - 145.685
DELFI C3 18 Nov 20:10:03 20:13:36 33° 69° (ENE) 20:17:11 145.870
CUBEBUG 2 18 Nov 20:16:29 20:18:14 12° 272° (W) 20:19:59 437.445
FO-29 18 Nov 20:19:33 20:27:10 49° 96° (E) 20:34:29 435.910
Max Valier Satellite 18 Nov 20:22:03 20:25:15 29° 69° (ENE) 20:28:27 145.860
EO-88 18 Nov 20:28:09 20:31:08 25° 67° (ENE) 20:34:08 145.990 - 145.960
AO-73 18 Nov 20:32:24 20:35:52 24° 266° (W) 20:39:20 145.935
Oscar 11 18 Nov 20:52:39 20:55:58 21° 268° (W) 20:59:17 .
UNISAT 6 18 Nov 20:59:49 21:02:36 17° 90° (E) 21:05:20 437.425
TIGRISAT 18 Nov 21:05:01 21:07:52 17° 91° (E) 21:10:40 435.000
LO-87 18 Nov 21:05:40 21:06:03 10° 60° (ENE) 21:06:25 145.935 - 145.965
STRAND 1 18 Nov 21:07:40 21:11:46 24° 299° (WNW) 21:15:49 437.568
ESTCUBE 1 18 Nov 21:35:33 21:38:54 21° 62° (ENE) 21:42:15 437.505/2401.250
nSIGHT-1 18 Nov 21:35:54 21:38:13 18° 138° (SE) 21:40:31 .
RS-15 18 Nov 21:36:06 21:48:04 52° 325° (NW) 21:59:51 29.354- 29.394
NO-84 18 Nov 21:39:24 21:43:31 49° 24° (NNE) 21:47:41 435.350 FM
DELFI C3 18 Nov 21:45:12 21:48:24 23° 267° (W) 21:51:38 145.870
Max Valier Satellite 18 Nov 21:56:12 21:59:05 22° 266° (W) 22:02:00 145.860
EO-88 18 Nov 22:01:39 22:04:42 25° 265° (W) 22:07:47 145.990 - 145.960
FO-29 18 Nov 22:04:43 22:12:04 45° 297° (WNW) 22:19:14 435.910
ISS 18 Nov 22:09:12 22:12:04 29° 142° (SE) 22:14:56 437.550
SO-50 18 Nov 22:29:32 22:33:46 43° 120° (ESE) 22:38:03 436.795
LO-87 18 Nov 22:35:16 22:38:52 77° 256° (WSW) 22:42:30 145.935 - 145.965
UNISAT 6 18 Nov 22:35:27 22:39:39 53° 288° (WNW) 22:43:48 437.425
TIGRISAT 18 Nov 22:40:42 22:44:53 51° 289° (WNW) 22:48:59 435.000
O/OREOS (USA 219) 18 Nov 22:52:01 22:56:16 36° 56° (NE) 23:00:27 437.305
PRISM 18 Nov 22:55:58 23:00:10 87° 279° (W) 23:04:19 437.425
EO-79 18 Nov 23:02:21 23:04:32 14° 89° (E) 23:06:42 145.935-145.965
NANOSAT C BR1 18 Nov 23:07:41 23:09:53 14° 89° (E) 23:12:04 145.865
nSIGHT-1 18 Nov 23:10:54 23:14:06 85° 338° (NNW) 23:17:20 .
ESTCUBE 1 18 Nov 23:11:02 23:15:22 49° 260° (W) 23:19:45 437.505/2401.250
AIST 2D 18 Nov 23:15:03 23:18:29 51° 100° (E) 23:21:56 435.315
POLYITAN 1 18 Nov 23:16:07 23:19:08 19° 92° (E) 23:22:08 437.675
NO-84 18 Nov 23:16:51 23:20:55 43° 223° (SW) 23:24:56 435.350 FM
SPROUT 18 Nov 23:29:37 23:33:52 70° 75° (ENE) 23:38:10 437.525
QB50P2 18 Nov 23:38:33 23:42:27 35° 97° (E) 23:46:18 145.880/145.840
50 SAT 18 Nov 23:44:33 23:46:19 14° 64° (ENE) 23:48:06 437.505
VELOX 1 18 Nov 23:44:44 23:49:07 67° 73° (ENE) 23:53:34 145.980
ISS 18 Nov 23:45:08 23:48:23 62° 340° (NNW) 23:51:38 437.550
FO-29 18 Nov 23:52:12 23:55:10 13° 318° (NW) 23:58:08 435.910
RS-15 18 Nov 23:53:15 00:04:06 34° 358° (N) 00:14:36 29.354- 29.394
UKube-1 18 Nov 23:54:30 23:57:06 16° 59° (ENE) 23:59:41 .
BUGSAT 1 19 Nov 00:04:10 00:05:39 12° 88° (E) 00:07:07 437.445
SO-50 19 Nov 00:10:20 00:14:20 31° 320° (NW) 00:18:25 436.795
O/OREOS (USA 219) 19 Nov 00:31:38 00:35:34 29° 255° (WSW) 00:39:26 437.305
Oscar 19 19 Nov 00:32:36 00:35:45 16° 89° (E) 00:38:53 437.125/150
DUCHIFAT 1 19 Nov 00:32:59 00:37:11 87° 279° (W) 00:41:20 145.980
PRISM 19 Nov 00:33:33 00:34:44 11° 303° (WNW) 00:35:56 437.425
PCSat 19 Nov 00:33:38 00:38:33 37° 113° (ESE) 00:43:30 145.827
Gurwin Techsat 1B 19 Nov 00:34:45 00:36:53 12° 86° (E) 00:39:00 435.225
EO-79 19 Nov 00:36:33 00:40:43 63° 288° (WNW) 00:44:50 145.935-145.965
DX 1 19 Nov 00:39:51 00:44:09 62° 72° (ENE) 00:48:30 434.975-435.025
NANOSAT C BR1 19 Nov 00:41:51 00:46:00 62° 287° (WNW) 00:50:07 145.865
nSIGHT-1 19 Nov 00:47:34 00:50:35 37° 355° (N) 00:53:37 .
AIST 2D 19 Nov 00:49:34 00:51:15 13° 297° (WNW) 00:52:58 435.315
POLYITAN 1 19 Nov 00:51:08 00:55:09 44° 290° (WNW) 00:59:07 437.675
SPROUT 19 Nov 01:08:15 01:10:14 13° 271° (W) 01:12:15 437.525
QB50P2 19 Nov 01:14:39 01:18:05 25° 295° (WNW) 01:21:30 145.880/145.840
50 SAT 19 Nov 01:15:03 01:18:07 39° 261° (W) 01:21:12 437.505
BEESAT 19 Nov 01:16:30 01:19:43 18° 59° (ENE) 01:22:56 436.000
ISS 19 Nov 01:22:08 01:25:13 37° 1° (N) 01:28:17 437.550
VELOX 1 19 Nov 01:23:38 01:26:03 14° 271° (W) 01:28:27 145.980
ITUPSAT 1 19 Nov 01:23:48 01:27:18 21° 60° (ENE) 01:30:49 437.325
UKube-1 19 Nov 01:28:19 01:32:36 66° 257° (WSW) 01:36:57 .
BUGSAT 1 19 Nov 01:37:27 01:41:30 69° 287° (WNW) 01:45:29 437.445
M-CUBED/EXP-1 PRIME 19 Nov 01:39:39 01:40:36 11° 93° (E) 01:41:33 437.505
SO-50 19 Nov 01:54:47 01:56:14 11° 344° (NNW) 01:57:41 436.795
MOZHAYETS 4 19 Nov 02:03:01 02:07:26 52° 71° (ENE) 02:11:53
CUBESAT XI-V 19 Nov 02:08:33 02:11:28 17° 60° (ENE) 02:14:24 437.345
RS-15 19 Nov 02:08:42 02:20:19 48° 31° (NNE) 02:31:18 29.354- 29.394
Oscar 19 19 Nov 02:10:29 02:15:38 75° 287° (WNW) 02:20:47 437.125/150
DUCHIFAT 1 19 Nov 02:11:01 02:12:08 11° 303° (WNW) 02:13:15 145.980
Gurwin Techsat 1B 19 Nov 02:12:16 02:17:39 83° 106° (ESE) 02:22:58 435.225
PCSat 19 Nov 02:16:45 02:21:53 42° 313° (NW) 02:27:04 145.827
DX 1 19 Nov 02:18:12 02:20:45 15° 270° (W) 02:23:18 434.975-435.025
nSIGHT-1 19 Nov 02:24:04 02:27:13 51° 16° (NNE) 02:30:21 .
AO-7 19 Nov 02:34:51 02:41:36 26° 92° (E) 02:48:17 .
KKS-1 19 Nov 02:43:43 02:44:11 10° 54° (NE) 02:44:38 437.445
BEESAT 19 Nov 02:52:15 02:57:00 66° 257° (WSW) 03:01:46 436.000
ISS 19 Nov 02:58:45 03:02:01 68° 21° (NNE) 03:05:15 437.550
ITUPSAT 1 19 Nov 03:00:02 03:04:44 57° 259° (WSW) 03:09:29 437.325
M-CUBED/EXP-1 PRIME 19 Nov 03:11:03 03:15:31 82° 108° (ESE) 03:20:08 437.505
BEESAT 3 19 Nov 03:24:45 03:28:31 43° 121° (ESE) 03:32:20 437.485
MOZHAYETS 4 19 Nov 03:41:38 03:44:54 19° 269° (W) 03:48:10
CUBESAT XI-V 19 Nov 03:43:46 03:48:20 67° 259° (WSW) 03:52:56 437.345
Oscar 19 19 Nov 03:51:49 03:54:06 13° 306° (NW) 03:56:23 437.125/150
Gurwin Techsat 1B 19 Nov 03:53:31 03:56:56 17° 304° (WNW) 04:00:19 435.225
ITAMSAT 1 19 Nov 03:56:35 04:01:49 68° 103° (ESE) 04:06:58 435.822/435.867
nSIGHT-1 19 Nov 04:00:24 04:03:24 38° 214° (SW) 04:06:24 .
PCSat 19 Nov 04:04:03 04:06:47 14° 336° (NNW) 04:09:31 145.827
DOVE 4 19 Nov 04:06:26 04:10:08 19° 88° (E) 04:13:43 437.250
KKS-1 19 Nov 04:15:26 04:19:53 70° 72° (ENE) 04:24:22 437.445
RS-15 19 Nov 04:21:53 04:33:45 75° 239° (WSW) 04:44:58 29.354- 29.394
YUBILEINY 19 Nov 04:24:43 04:31:08 24° 77° (ENE) 04:37:35 435.215
AO-7 19 Nov 04:26:50 04:35:11 79° 293° (WNW) 04:43:32 .
BEESAT 2 19 Nov 04:29:07 04:33:03 59° 123° (ESE) 04:37:04 435.950
ISS 19 Nov 04:35:32 04:38:17 25° 219° (SW) 04:41:01 437.550
M-CUBED/EXP-1 PRIME 19 Nov 04:46:44 04:49:22 16° 306° (NW) 04:52:04 437.505
STARS 19 Nov 04:47:45 04:52:08 63° 72° (ENE) 04:56:32 437.465
BEESAT 3 19 Nov 05:02:46 05:06:13 27° 320° (NW) 05:09:41 437.485
STRAND 1 19 Nov 05:10:08 05:13:25 17° 57° (ENE) 05:16:41 437.568
CUTE-I 19 Nov 05:10:12 05:12:57 14° 87° (E) 05:15:41 437.470
SO-50 19 Nov 05:17:28 05:21:02 22° 33° (NNE) 05:24:38 436.795
LilacSat-2 19 Nov 05:18:11 05:20:41 16° 91° (E) 05:23:10 437.200
XW-2C 19 Nov 05:19:48 05:22:11 16° 91° (E) 05:24:34 145.795 - 145.815
NUDT-PHONESAT 19 Nov 05:22:35 05:23:49 11° 89° (E) 05:25:03 437.300
AO-85 19 Nov 05:26:54 05:30:48 87° 120° (ESE) 05:34:55 145.980
HO-68 19 Nov 05:32:14 05:34:48 12° 83° (E) 05:37:22 435.675
XW-2F 19 Nov 05:32:45 05:35:38 20° 93° (E) 05:38:30 145.980 - 146.000
ITAMSAT 1 19 Nov 05:37:01 05:40:47 20° 302° (WNW) 05:44:31 435.822/435.867
DOVE 4 19 Nov 05:43:02 05:48:16 65° 287° (WNW) 05:53:17 437.250
KKS-1 19 Nov 05:54:34 05:56:55 14° 271° (W) 05:59:18 437.445
CUTE 1.7 + AOD 2 19 Nov 05:58:19 05:59:49 12° 87° (E) 06:01:19 437.475
KAITUO 1B 19 Nov 06:05:02 06:08:32 36° 98° (E) 06:12:01 145.475/437.950
BEESAT 2 19 Nov 06:07:53 06:11:07 22° 323° (NW) 06:14:22 435.950
XW-2D 19 Nov 06:12:40 06:16:27 64° 102° (ESE) 06:20:13 145.860 - 145.880
YUBILEINY 19 Nov 06:18:03 06:26:49 85° 278° (W) 06:35:43 435.215
AO-7 19 Nov 06:20:40 06:26:47 23° 314° (NW) 06:32:54 .
CUBEBUG 2 19 Nov 06:25:46 06:27:41 13° 88° (E) 06:29:35 437.445
STARS 19 Nov 06:26:15 06:28:53 15° 270° (W) 06:31:31 437.465
XW-2B 19 Nov 06:27:22 06:31:11 89° 283° (WNW) 06:35:00 145.730 - 145.750
SEEDS 19 Nov 06:33:08 06:35:55 17° 90° (E) 06:38:42 437.485
FO-29 19 Nov 06:35:15 06:41:02 31° 58° (ENE) 06:47:21 435.910
RS-15 19 Nov 06:36:21 06:43:56 20° 263° (W) 06:51:20 29.354- 29.394
STRAND 1 19 Nov 06:46:48 06:51:58 81° 256° (WSW) 06:57:09 437.568
CUTE-I 19 Nov 06:48:19 06:53:45 89° 275° (W) 06:59:06 437.470
AAUSAT CUBESAT 2 19 Nov 06:49:36 06:50:47 11° 87° (E) 06:51:57 437.432
LilacSat-2 19 Nov 06:51:31 06:55:09 43° 289° (WNW) 06:58:49 437.200
XW-2C 19 Nov 06:52:58 06:56:36 44° 288° (WNW) 07:00:13 145.795 - 145.815
NUDT-PHONESAT 19 Nov 06:54:23 06:58:03 60° 286° (WNW) 07:01:42 437.300
SO-50 19 Nov 06:57:25 07:02:03 84° 234° (SW) 07:06:45 436.795
XW-2F 19 Nov 07:06:23 07:09:49 34° 290° (WNW) 07:13:15 145.980 - 146.000
AO-85 19 Nov 07:09:03 07:11:49 18° 329° (NNW) 07:14:42 145.980
HO-68 19 Nov 07:16:47 07:23:57 65° 103° (ESE) 07:31:04 435.675
DOVE 4 19 Nov 07:23:08 07:24:53 12° 307° (NW) 07:26:37 437.250
ZACube-1 19 Nov 07:24:05 07:26:44 16° 91° (E) 07:29:23 437.345
XW-2A 19 Nov 07:25:23 07:28:13 25° 96° (E) 07:31:03 145.665 - 145.685
UWE-3 19 Nov 07:26:55 07:30:39 31° 96° (E) 07:34:20 435.000/436.395/437.385
CUTE 1.7 + AOD 2 19 Nov 07:31:54 07:36:11 77° 284° (WNW) 07:40:27 437.475
PCSat 19 Nov 07:35:06 07:38:38 17° 30° (NNE) 07:42:10 145.827
KAITUO 1B 19 Nov 07:39:31 07:42:17 20° 295° (WNW) 07:45:03 145.475/437.950
XW-2D 19 Nov 07:48:24 07:50:07 13° 299° (WNW) 07:51:51 145.860 - 145.880
CUBEBUG 2 19 Nov 08:00:37 08:04:48 65° 286° (WNW) 08:08:53 437.445
UNISAT 6 19 Nov 08:01:10 08:04:49 24° 64° (ENE) 08:08:24 437.425
TIGRISAT 19 Nov 08:06:13 08:09:54 24° 65° (ENE) 08:13:32 435.000
SEEDS 19 Nov 08:07:46 08:11:54 52° 288° (WNW) 08:16:01 437.485
PRISM 19 Nov 08:15:27 08:17:11 12° 58° (ENE) 08:18:55 437.425
AO-73 19 Nov 08:15:48 08:19:49 49° 99° (E) 08:23:50 145.935
YUBILEINY 19 Nov 08:18:39 08:25:07 22° 303° (WNW) 08:31:40 435.215
FO-29 19 Nov 08:19:01 08:25:31 64° 260° (W) 08:32:54 435.910
AAUSAT CUBESAT 2 19 Nov 08:22:34 08:26:47 79° 283° (WNW) 08:30:57 437.432
CUTE-I 19 Nov 08:29:51 08:33:02 16° 305° (NW) 08:36:13 437.470
STRAND 1 19 Nov 08:30:21 08:31:57 11° 274° (W) 08:33:35 437.568
Oscar 11 19 Nov 08:35:09 08:39:24 55° 100° (E) 08:43:39 .
SO-50 19 Nov 08:39:58 08:41:48 12° 251° (WSW) 08:43:39 436.795
XW-2A 19 Nov 08:58:12 09:00:49 21° 293° (WNW) 09:03:25 145.665 - 145.685
ZACube-1 19 Nov 08:59:19 09:03:20 50° 288° (WNW) 09:07:20 437.345
UWE-3 19 Nov 09:03:32 09:07:02 26° 294° (WNW) 09:10:28 435.000/436.395/437.385
HO-68 19 Nov 09:05:07 09:11:15 31° 303° (WNW) 09:17:21 435.675
CUTE 1.7 + AOD 2 19 Nov 09:11:09 09:11:15 10° 303° (WNW) 09:11:20 437.475
PCSat 19 Nov 09:17:46 09:23:11 61° 53° (NE) 09:28:32 145.827
DELFI C3 19 Nov 09:17:48 09:21:29 33° 97° (E) 09:25:07 145.870
Max Valier Satellite 19 Nov 09:22:02 09:25:08 25° 95° (E) 09:28:12 145.860
EO-88 19 Nov 09:26:41 09:29:28 20° 93° (E) 09:32:14 145.990 - 145.960
UNISAT 6 19 Nov 09:36:55 09:41:18 43° 262° (W) 09:45:36 437.425
TIGRISAT 19 Nov 09:42:02 09:46:22 42° 262° (W) 09:50:40 435.000
PRISM 19 Nov 09:47:42 09:51:50 81° 258° (WSW) 09:56:00 437.425
AIST 2D 19 Nov 09:52:10 09:55:12 29° 70° (ENE) 09:58:16 435.315
AO-73 19 Nov 09:52:54 09:55:43 18° 297° (WNW) 09:58:32 145.935
DUCHIFAT 1 19 Nov 09:54:31 09:56:24 13° 59° (ENE) 09:58:15 145.980
EO-79 19 Nov 09:57:35 10:00:21 17° 61° (ENE) 10:03:07 145.935-145.965
BEESAT 3 19 Nov 10:01:37 10:03:57 15° 30° (NNE) 10:06:17 437.485
NANOSAT C BR1 19 Nov 10:02:34 10:05:20 17° 62° (ENE) 10:08:05 145.865
FO-29 19 Nov 10:09:50 10:12:15 12° 282° (WNW) 10:14:45 435.910
POLYITAN 1 19 Nov 10:11:30 10:14:50 23° 64° (ENE) 10:18:08 437.675
Oscar 11 19 Nov 10:12:13 10:15:09 18° 298° (WNW) 10:18:05 .
QB50P2 19 Nov 10:33:47 10:37:46 40° 70° (ENE) 10:41:45 145.880/145.840
AO-85 19 Nov 10:35:23 10:36:35 11° 19° (NNE) 10:37:48 145.980
DELFI C3 19 Nov 10:52:51 10:56:04 24° 294° (WNW) 10:59:15 145.870
Max Valier Satellite 19 Nov 10:55:50 10:58:53 26° 292° (WNW) 11:01:57 145.860
BUGSAT 1 19 Nov 10:56:29 10:58:51 15° 60° (ENE) 11:01:12 437.445
EO-88 19 Nov 10:59:54 11:03:10 31° 291° (WNW) 11:06:25 145.990 - 145.960
ESTCUBE 1 19 Nov 11:00:14 11:04:06 27° 94° (E) 11:07:58 437.505/2401.250
PCSat 19 Nov 11:01:54 11:06:08 24° 252° (WSW) 11:10:23 145.827
BEESAT 2 19 Nov 11:06:38 11:09:30 18° 34° (NNE) 11:12:22 435.950
AIST 2D 19 Nov 11:25:53 11:28:26 19° 267° (W) 11:31:00 435.315
DUCHIFAT 1 19 Nov 11:27:13 11:31:27 81° 255° (WSW) 11:35:41 145.980
EO-79 19 Nov 11:31:30 11:35:41 57° 259° (W) 11:39:53 145.935-145.965
LO-87 19 Nov 11:32:00 11:35:35 84° 103° (ESE) 11:39:06 145.935 - 145.965
NANOSAT C BR1 19 Nov 11:36:27 11:40:37 56° 259° (W) 11:44:48 145.865
BEESAT 3 19 Nov 11:38:13 11:42:12 73° 51° (NE) 11:46:05 437.485
POLYITAN 1 19 Nov 11:46:23 11:50:23 40° 262° (W) 11:54:24 437.675
AO-7 19 Nov 11:49:47 11:54:03 15° 36° (NE) 11:58:18 .
Oscar 19 19 Nov 11:52:03 11:56:35 33° 65° (ENE) 12:01:08 437.125/150
Gurwin Techsat 1B 19 Nov 11:57:52 12:02:21 29° 63° (ENE) 12:06:52 435.225
FALCONSAT 3 19 Nov 12:02:38 12:04:02 12° 172° (S) 12:05:25 435.103
QB50P2 19 Nov 12:10:25 12:13:42 22° 267° (W) 12:17:01 145.880/145.840
AO-85 19 Nov 12:14:12 12:18:18 33° 42° (NE) 12:22:42 145.980
M-CUBED/EXP-1 PRIME 19 Nov 12:27:02 12:29:33 18° 55° (NE) 12:32:10 437.505
BUGSAT 1 19 Nov 12:29:31 12:33:42 67° 257° (WSW) 12:37:52 437.445
ESTCUBE 1 19 Nov 12:36:49 12:40:58 36° 292° (WNW) 12:45:06 437.505/2401.250
BEESAT 2 19 Nov 12:43:41 12:47:45 82° 234° (SW) 12:51:44 435.950
SPROUT 19 Nov 12:47:34 12:51:51 86° 103° (ESE) 12:56:05 437.525
VELOX 1 19 Nov 13:07:35 13:12:06 86° 109° (ESE) 13:16:32 145.980
O/OREOS (USA 219) 19 Nov 13:08:17 13:11:48 22° 102° (ESE) 13:15:19 437.305
UKube-1 19 Nov 13:13:02 13:15:44 16° 91° (E) 13:18:23 .
BEESAT 3 19 Nov 13:17:20 13:19:10 13° 250° (WSW) 13:20:58 437.485
Oscar 19 19 Nov 13:31:07 13:35:50 37° 263° (W) 13:40:35 437.125/150
Gurwin Techsat 1B 19 Nov 13:36:59 13:42:06 46° 261° (W) 13:47:14 435.225
AO-7 19 Nov 13:37:03 13:44:54 50° 60° (ENE) 13:52:47 .
ITAMSAT 1 19 Nov 13:39:53 13:43:56 23° 60° (ENE) 13:48:00 435.822/435.867
FALCONSAT 3 19 Nov 13:40:46 13:42:15 12° 187° (S) 13:43:45 435.103
AO-85 19 Nov 13:54:25 13:58:52 46° 240° (WSW) 14:03:38 145.980
M-CUBED/EXP-1 PRIME 19 Nov 14:00:14 14:03:36 43° 256° (WSW) 14:07:16 437.505
DX 1 19 Nov 14:00:38 14:05:02 74° 102° (ESE) 14:09:24 434.975-435.025
50 SAT 19 Nov 14:00:58 14:04:13 79° 286° (WNW) 14:07:26 437.505
SPROUT 19 Nov 14:25:25 14:27:05 12° 302° (WNW) 14:28:45 437.525
YUBILEINY 19 Nov 14:29:13 14:33:53 15° 49° (NE) 14:38:31 435.215
VELOX 1 19 Nov 14:45:47 14:47:52 13° 303° (WNW) 14:49:57 145.980
O/OREOS (USA 219) 19 Nov 14:46:26 14:50:53 48° 301° (WNW) 14:55:22 437.305
UKube-1 19 Nov 14:47:50 14:52:06 58° 289° (WNW) 14:56:21 .
BEESAT 19 Nov 14:49:28 14:53:19 24° 94° (E) 14:57:09 436.000
ITUPSAT 1 19 Nov 14:57:24 15:01:29 28° 95° (E) 15:05:33 437.325
DOVE 4 19 Nov 15:14:13 15:18:25 27° 63° (ENE) 15:22:46 437.250
ITAMSAT 1 19 Nov 15:17:52 15:23:01 59° 259° (WSW) 15:28:12 435.822/435.867
AO-7 19 Nov 15:29:55 15:37:44 45° 260° (W) 15:45:39 .
MOZHAYETS 4 19 Nov 15:31:26 15:36:01 79° 104° (ESE) 15:40:35
CUBESAT XI-V 19 Nov 15:37:16 15:41:05 24° 93° (E) 15:44:52 437.345
DX 1 19 Nov 15:38:13 15:40:40 15° 301° (WNW) 15:43:05 434.975-435.025
LilacSat-2 19 Nov 16:03:47 16:05:46 14° 62° (ENE) 16:07:46 437.200
HO-68 19 Nov 16:04:42 16:08:56 17° 46° (NE) 16:13:10 435.675
XW-2C 19 Nov 16:04:50 16:06:39 13° 61° (ENE) 16:08:29 145.795 - 145.815
KKS-1 19 Nov 16:06:02 16:06:41 10° 87° (E) 16:07:20 437.445
NO-84 19 Nov 16:10:20 16:13:58 48° 139° (SE) 16:17:54 435.350 FM
XW-2F 19 Nov 16:17:02 16:19:24 16° 63° (ENE) 16:21:47 145.980 - 146.000
YUBILEINY 19 Nov 16:24:16 16:33:01 59° 74° (ENE) 16:41:42 435.215
BEESAT 19 Nov 16:26:45 16:31:17 44° 292° (WNW) 16:35:46 436.000
CUTE-I 19 Nov 16:34:17 16:39:00 32° 64° (ENE) 16:43:44 437.470
ITUPSAT 1 19 Nov 16:35:00 16:39:24 38° 293° (WNW) 16:43:47 437.325
RS-15 19 Nov 16:45:08 16:49:32 13° 91° (E) 16:53:55 29.354- 29.394
KAITUO 1B 19 Nov 16:47:57 16:51:04 27° 68° (ENE) 16:54:13 145.475/437.950
DOVE 4 19 Nov 16:50:59 16:55:48 48° 262° (W) 17:00:53 437.250
CUTE 1.7 + AOD 2 19 Nov 16:54:04 16:56:07 13° 59° (ENE) 16:58:10 437.475
XW-2D 19 Nov 16:56:34 17:00:09 47° 72° (ENE) 17:03:46 145.860 - 145.880
MOZHAYETS 4 19 Nov 17:10:05 17:12:34 15° 302° (WNW) 17:15:03
XW-2B 19 Nov 17:11:11 17:14:52 67° 75° (ENE) 17:18:37 145.730 - 145.750
CUBESAT XI-V 19 Nov 17:14:11 17:18:36 43° 291° (WNW) 17:23:02 437.345
CUBEBUG 2 19 Nov 17:26:10 17:29:21 19° 63° (ENE) 17:32:29 437.445
SEEDS 19 Nov 17:27:57 17:30:47 18° 63° (ENE) 17:33:39 437.485
NUDT-PHONESAT 19 Nov 17:35:51 17:39:29 88° 261° (W) 17:43:09 437.300
LilacSat-2 19 Nov 17:35:55 17:39:36 56° 259° (W) 17:43:20 437.200
XW-2C 19 Nov 17:36:41 17:40:22 59° 260° (W) 17:44:05 145.795 - 145.815
KKS-1 19 Nov 17:39:24 17:43:55 89° 104° (ESE) 17:48:22 437.445
AAUSAT CUBESAT 2 19 Nov 17:42:48 17:44:27 12° 59° (ENE) 17:46:06 437.432
NO-84 19 Nov 17:47:38 17:51:25 43° 339° (NNW) 17:55:25 435.350 FM
HO-68 19 Nov 17:48:16 17:55:22 66° 68° (ENE) 18:02:30 435.675
XW-2F 19 Nov 17:49:38 17:53:11 44° 262° (W) 17:56:47 145.980 - 146.000
XW-2A 19 Nov 18:00:06 18:02:07 15° 65° (ENE) 18:04:08 145.665 - 145.685
STARS 19 Nov 18:09:52 18:14:18 77° 103° (ESE) 18:18:40 437.465
CUTE-I 19 Nov 18:13:53 18:18:55 41° 262° (W) 18:24:01 437.470
YUBILEINY 19 Nov 18:21:39 18:29:25 36° 276° (W) 18:37:09 435.215
KAITUO 1B 19 Nov 18:21:58 18:25:01 24° 266° (W) 18:28:05 145.475/437.950
ZACube-1 19 Nov 18:22:42 18:25:55 21° 64° (ENE) 18:29:05 437.345
UWE-3 19 Nov 18:26:25 18:30:35 39° 69° (ENE) 18:34:38 435.000/436.395/437.385
CUTE 1.7 + AOD 2 19 Nov 18:27:11 18:31:22 74° 258° (WSW) 18:35:36 437.475
XW-2D 19 Nov 18:32:29 18:34:36 14° 270° (W) 18:36:43 145.860 - 145.880
RS-15 19 Nov 18:47:15 18:59:01 56° 114° (ESE) 19:10:44 29.354- 29.394
XW-2B 19 Nov 18:48:51 18:49:30 10° 272° (W) 18:50:10 145.730 - 145.750
STRAND 1 19 Nov 18:54:26 18:58:47 27° 94° (E) 19:03:05 437.568
CUBEBUG 2 19 Nov 19:01:03 19:05:35 57° 259° (W) 19:10:01 437.445
SEEDS 19 Nov 19:02:04 19:06:06 50° 260° (W) 19:10:12 437.485
AO-73 19 Nov 19:13:51 19:18:04 57° 73° (ENE) 19:22:13 145.935
AAUSAT CUBESAT 2 19 Nov 19:15:09 19:19:16 81° 257° (WSW) 19:23:27 437.432
KKS-1 19 Nov 19:17:47 19:19:47 13° 303° (WNW) 19:21:47 437.445
FO-29 19 Nov 19:25:34 19:31:30 23° 86° (E) 19:37:13 435.910
NO-84 19 Nov 19:25:56 19:29:32 28° 0° (N) 19:33:14 435.350 FM
XW-2A 19 Nov 19:31:26 19:34:32 36° 262° (W) 19:37:39 145.665 - 145.685
